Flag for Netherlands Weather past 2 weeks in Amersfoort, Netherlands

Now
79 °F

Scattered clouds.


Feels Like: 81 °F
Forecast: 59 / 71 °F
Wind: 13 mph from North

Location: Deelen

Current Time: Jul 29, 2014 at 5:50:25 PM

Latest Report: Jul 29, 2014 at 5:25 PM


Visibility: N/A

Pressure: 29.80 "Hg

Humidity: 61%

Dew point: 64 °F

Location of AmersfoortLocation

Historic Weather in Amersfoort — Graph

°F

Amersfoort temperature yesterday

Maximum temperature yesterday: 75 °F (at 11:55 AM)
Minimum temperature yesterday: 59 °F (at 1:55 PM)
Average temperature yesterday: 66 °F

Past Weeks' High & Low Weather Summary

 TemperatureHumidityPressure
High93 °F (Jul 19, 5:25 PM)100% (Jul 15, 12:25 AM)30.18 "Hg (Jul 15, 12:25 AM)
Low54 °F (Jul 16, 5:25 AM)26% (Jul 19, 2:25 PM)29.74 "Hg (Jul 20, 3:25 AM)
Average70 °F77%29.98 "Hg
* Reported Jul 14 4:25 PM — Jul 29 4:25 PM, Amersfoort, Weather by CustomWeather, © 2014

Note: Actual official high and low records may vary slightly from our data, if they occured in-between our weather recording intervals... More about our weather records

Advertising

Amersfoort weather history for previous 24 hours

 ConditionsComfort  
Time TempWeatherWind HumidityBarometerVisibility
4:25 PM
Jul 29
81 °FPassing clouds.14 mph54%29.80 "HgN/A
3:55 PM81 °FPassing clouds.10 mph54%29.83 "HgN/A
3:25 PM81 °FPassing clouds.13 mph58%29.83 "HgN/A
2:55 PM81 °FPassing clouds.12 mph62%29.83 "HgN/A
2:25 PM79 °FPartly sunny.12 mph65%29.86 "HgN/A
1:55 PM81 °FPassing clouds.7 mph58%29.86 "HgN/A
1:25 PM81 °FPassing clouds.10 mph58%29.86 "HgN/A
12:55 PM79 °FPassing clouds.10 mph61%29.86 "HgN/A
12:25 PM79 °FPassing clouds.13 mph65%29.86 "HgN/A
11:55 AM77 °FPassing clouds.13 mph69%29.86 "HgN/A
11:25 AM75 °FPassing clouds.9 mph74%29.86 "HgN/A
10:55 AM75 °FMild.10 mph74%29.86 "HgN/A
10:25 AM73 °FScattered clouds.10 mph78%29.86 "HgN/A
9:55 AM70 °FPassing clouds.12 mph88%29.86 "HgN/A
9:25 AM68 °FBroken clouds.12 mph94%29.86 "HgN/A
8:55 AM68 °FFog.12 mph88%29.86 "Hg5 mi
8:25 AM68 °FFog.10 mph88%29.86 "Hg5 mi
7:55 AM66 °FFog.8 mph94%29.86 "Hg4 mi
7:25 AM66 °FFog.6 mph94%29.86 "Hg4 mi
6:55 AM64 °FFog.5 mph100%29.86 "Hg4 mi
6:25 AM64 °FFog.6 mph100%29.86 "Hg2 mi
5:55 AM64 °FFog.5 mph94%29.86 "Hg2 mi
5:25 AM64 °FFog.6 mph100%29.86 "Hg3 mi
4:55 AM63 °FFog.7 mph94%29.86 "Hg3 mi
4:25 AM64 °FFog.5 mph94%29.86 "Hg4 mi
3:55 AM64 °FFog.3 mph94%29.86 "Hg3 mi
3:25 AM59 °FFog.5 mph100%29.86 "Hg2 mi
2:55 AM61 °FFog.2 mph100%29.86 "Hg2 mi
2:25 AM59 °FFog.5 mph100%29.86 "Hg2 mi
1:55 AM61 °FFog.5 mph100%29.89 "Hg3 mi
1:25 AM61 °FFog.6 mph100%29.89 "Hg3 mi
12:55 AM61 °FFog.3 mph100%29.89 "Hg3 mi
12:25 AM61 °FFog.3 mph100%29.89 "Hg4 mi
11:55 PM
Jul 28
63 °FMild.3 mph94%29.89 "HgN/A
11:25 PM61 °FFog.2 mph100%29.89 "Hg6 mi
10:55 PM63 °FFog.6 mph100%29.89 "Hg2 mi
10:25 PM63 °FFog.1 mph100%29.89 "Hg2 mi
9:55 PM63 °FFog.1 mph100%29.89 "Hg4 mi
9:25 PM64 °FPartly sunny.1 mph94%29.89 "HgN/A
8:55 PM66 °FPartly sunny.2 mph88%29.86 "HgN/A
8:25 PM66 °FMild.2 mph88%29.86 "HgN/A
7:55 PM66 °FPartly sunny.5 mph88%29.86 "HgN/A
7:25 PM68 °FPassing clouds.6 mph83%29.86 "HgN/A
6:55 PM68 °FPassing clouds.2 mph88%29.83 "HgN/A
6:25 PM66 °FPartly sunny.6 mph94%29.86 "HgN/A
5:55 PM64 °FPartly sunny.6 mph94%29.86 "HgN/A
5:25 PM63 °FMore clouds than sun.8 mph100%29.86 "HgN/A
Weather by CustomWeather, © 2014

See weather overviewHow to use our weather pages